Hourly Data Report for January 09, 2013

BAGOTVILLE A
QUEBEC

48°20'00.000" N
71°00'00.000" W
159.10 m
7060400
71727
YBG

Download Data

Hourly Data (January 2013)
Hourly Data Report for January 9, 2013
TIME
LST
Temp Definition
°C
Dew Point Definition
°C
Rel Hum Definition
%
Precip. Amount Definition
mm

Wind Dir Definition
10's deg

Wind Spd Definition
km/h
Visibility Definition
km
Stn Press Definition
kPa
Hmdx Definition


Wind Chill Definition


Weather Definition


00:00 -3.0 -5.1 85   27 6LegendEE 24.1 100.52   -5LegendEE Mostly Cloudy
01:00 -5.0 -7.5 83   23 6LegendEE 24.1 100.55   -8LegendEE Mostly Cloudy
02:00 -4.6 -7.7 79   18 6LegendEE 24.1 100.59   -7LegendEE Cloudy
03:00 -5.2 -7.1 86   18 6LegendEE 24.1 100.64   -8LegendEE Cloudy
04:00 -4.0 -6.0 86   23 6LegendEE 24.1 100.55   -7LegendEE Cloudy
05:00 -3.8 -6.7 80     0 24.1 100.50     Cloudy
06:00 -5.0 -7.5 83     0 24.1 100.49     Mostly Cloudy
07:00 -5.3 -7.2 86   9 13 32.2 100.42   -10 Mostly Cloudy
08:00 -4.9 -6.8 87   9 9LegendEE 40.2 100.37   -9LegendEE Mostly Cloudy
09:00 -4.5 -6.6 85   9 9LegendEE 40.2 100.26   -8LegendEE Mostly Cloudy
10:00 -4.9 -7.8 80   9 15LegendEE 40.2 100.11   -10LegendEE Mostly Cloudy
11:00 -3.9 -7.5 76   9 20LegendEE 40.2 99.86   -10LegendEE Mostly Cloudy
12:00 -2.4 -5.6 79   9 22 40.2 99.65   -9 Mostly Cloudy
13:00 -2.1 -5.4 78   9 22 40.2 99.46   -8 Cloudy
14:00 -1.9 -5.0 79   1 20 40.2 99.39   -8 Cloudy
15:00 -1.8 -4.8 80   10 22 24.1 99.23   -8 Cloudy
16:00 -1.9 -4.4 83   11 17 40.2 99.02   -7 Cloudy
17:00 -1.4 -3.8 84   10 20 16.1 98.82   -7 Snow
18:00 -0.9 -4.0 79   10 26 16.1 98.66   -7 Snow
19:00 -0.9 -4.0 79   10 20 8.0 98.59   -6 Snow
20:00 -1.6 -2.6 93   9 24 2.4 98.53   -8 Snow
21:00 -1.5 -2.0 96   9 17 1.2 98.49   -7 Snow
22:00 -1.7 -2.2 96   14 13 1.6 98.51   -6 Snow
23:00 -1.9 -2.4 96     0 4.8 98.52     Snow

Notes on Data Quality.

Legend

  • E = Estimated
  • M = Missing
  • NA = Not Available*
  • [empty] = Indicates an unobserved value
Date modified: